sat.trackr.live / text

‹ back to catalog

STARLINK-11277 [DTC]

NORAD 61205 · 2024-171F

PAYLOAD ACTIVE UNKNOWN

§ Identity

Operator
Country
US
Launch date
2024-09-20
Launch site
AFWTR
Launch vehicle
Mass (kg)
RCS (m²)

Purposes: comms

External: N2YO · Heavens-Above · Gunter

§ Orbital elements

Epoch: 2026-09-21T02:37:11.147520Z

Period
91.74 min
Inclination
53.1565°
Eccentricity
0.0000896
Mean motion
15.69712091 rev/d
Perigee alt
359.1 km
Apogee alt
360.3 km
Semi-major
6,737.9 km
B*
6.6585e-6
RAAN
292.7583°
Arg perigee
35.7598°
Mean anomaly
324.3480°
Rev number
11,509

§ Raw data

STARLINK-11277 [DTC]1 61205U 24171F   26264.10915680  .00000218  00000+0  66585-5 0  99942 61205  53.1565 292.7583 0000896  35.7598 324.3480 15.69712091115098

JSON: /api/v1/satellites/61205 · /tle

For live sub-satellite position, see the globe view (requires WebGL).

§ Visibility from observer

Set your observer location to see the next 7 days of passes ≥ 10°. The values pass through the URL so the page stays shareable.

No JS? Fill the form by hand. The geolocation button needs JavaScript.